Starlink 4622

operational
NORAD ID: 53648 Int'l Des: 2022-105 Owner: SPXS Country: US Constellation: starlink
LEOCIRCULARRETROGRADESSO

About Starlink 4622

Description loading...

Live Position

Loading 3D Globe...

Upcoming Passes

Altitude History

Altitude vs Time

uPlot chart will show altitude changes over time

Two-Line Element Set

1 53648U 22105A 25305.60577347 .00002646 00000-0 21040-3 0 9998
2 53648 97.6018 184.8215 0003614 72.3713 287.7905 15.01268273174022
Epoch: Nov 1, 2025 • Age: 10 hours

Current Status

Altitude 572.1 km
Velocity 7.57 km/s
Sub-Earth Point -19.54°S, 54.35°W
Launch Date Aug 31, 2022
Age 3.1 years
Type internet

Technical Details

Classification Payload
Mass 300.00 kg
Dry Mass 290.00 kg
Total Mass 300.00 kg
Length 0.20 m
Diameter 2.80 m
Span 9.00 m
Shape Box + pan
Manufacturer SPXS
Bus Type Starlink
Phase Status In Orbit
Owner/State SPXS/US

Large Constellations

Loading constellations...